Temp
11 11 10 10 10 10 10 9 9 9 9 9 9 9 8 8 8 8 8 7 7 7 8 8 8 9 9 9 9 8 8 8 8 8 8 8 8 8 8 9 9 9 9 9 9 8 8 8 8 8 8 8 8 8 8 8 8 8 9 9 9 9 9 9 9 9 9 9 10 9 9 9 9 9 9 9 9 9 9 9 9 8 8 8 8 7
11 10 10 10 10 10 9 9 9 9 9 8 8 8 8 8 8 8 8 8 7 7 7 8 8 8 9 9 9 8 8 8 8 8 8 8 8 8 8 8 9 9 9 8 8 8 8 8 8 8 8 8 8 8 8 8 8 8 9 9 9 9 9 9 9 9 8 9 9 9 9 9 9 9 9 9 9 9 9 9 8 8 8 8 7 7
10 10 10 9 9 9 9 9 8 8 8 8 8 8 8 8 8 8 8 8 8 7 7 7 8 8 8 9 9 8 8 8 8 9 8 8 8 8 8 8 8 8 8 8 8 8 8 8 8 8 8 8 8 8 8 8 8 8 8 9 9 9 9 9 9 8 9 9 9 9 9 9 9 9 9 9 9 9 8 8 8 8 8 7 7 7
10 9 9 9 9 8 8 8 8 8 8 8 8 8 8 8 8 8 8 8 8 8 7 7 7 8 8 8 9 8 8 8 8 9 9 8 8 8 8 8 8 8 8 8 8 8 8 8 8 8 8 8 8 8 8 8 8 8 8 8 8 8 8 8 8 8 8 8 8 8 8 8 8 9 8 8 8 8 8 8 8 7 7 7 7 7
9 9 9 8 8 8 8 8 8 8 8 7 7 8 8 8 8 8 8 8 8 8 7 7 7 7 7 8 8 8 8 8 8 9 9 8 8 8 8 8 8 8 8 8 8 8 8 8 8 8 8 8 8 8 8 8 8 8 8 8 8 8 8 8 8 8 8 8 8 8 8 8 8 8 8 8 8 8 7 7 7 7 7 7 6 6
9 8 8 8 8 8 8 8 8 8 7 7 7 7 7 7 7 7 7 7 7 7 7 7 7 7 7 7 7 8 8 8 8 8 9 8 8 8 8 9 8 8 8 8 8 8 8 8 8 7 8 7 7 8 8 8 8 8 8 8 8 8 8 8 8 8 8 7 7 7 8 8 8 8 7 7 7 7 7 6 6 6 6 6 6 6
8 8 7 8 8 8 8 7 7 7 7 7 7 7 7 7 7 7 7 7 7 7 7 7 7 7 7 7 7 7 8 8 8 8 8 8 8 8 8 8 8 8 8 8 8 8 8 8 8 7 7 7 7 8 8 8 7 7 7 7 7 7 8 8 8 8 7 7 7 7 7 7 7 7 7 7 6 6 6 6 6 6 6 6 6 6
7 7 7 7 7 7 7 7 7 7 7 7 7 6 6 7 7 7 7 7 7 7 6 6 6 6 7 7 7 7 7 7 8 8 8 8 8 8 8 8 8 8 8 8 8 8 8 8 7 7 7 7 7 7 7 7 7 7 7 7 7 7 7 7 7 7 7 7 7 7 7 7 6 6 6 6 6 6 6 5 5 5 5 5 5 6
7 7 7 7 7 7 7 7 6 6 6 6 6 6 6 6 6 6 6 6 6 6 6 6 6 6 6 7 7 7 7 7 7 8 8 8 8 8 8 8 8 8 8 8 7 7 7 7 7 7 7 7 7 7 7 7 7 6 6 6 7 7 7 7 7 7 7 7 7 7 6 6 6 6 6 6 6 6 6 5 5 5 5 5 5 5
6 6 6 7 7 6 6 6 6 6 6 6 6 6 6 6 6 6 6 6 6 6 6 6 6 6 6 6 7 7 7 7 7 7 7 7 8 8 8 8 8 8 8 8 7 7 7 7 7 7 7 7 7 7 7 7 6 6 6 6 6 7 7 7 7 6 6 6 6 6 6 6 6 6 6 6 6 6 6 6 5 5 5 5 5 5
6 6 6 6 6 6 6 6 6 6 6 6 6 6 6 6 6 5 5 5 5 5 5 5 5 6 6 6 6 7 7 7 7 7 7 7 7 7 8 8 8 8 7 7 7 7 7 7 7 7 7 7 6 6 6 6 6 5 6 6 6 6 6 6 6 6 6 6 6 6 6 6 6 6 6 6 6 6 6 6 6 5 5 5 5 5
6 6 6 6 6 6 6 6 6 6 6 6 5 6 6 6 5 5 5 5 5 5 5 5 5 5 5 6 6 6 6 6 7 7 7 7 7 7 7 7 7 7 7 7 7 7 7 6 6 6 6 6 6 6 6 6 5 5 5 5 6 6 6 6 6 6 6 6 6 6 5 5 5 5 5 5 5 5 5 5 5 5 5 5 4 4
6 6 6 6 6 6 6 6 6 6 6 5 5 5 5 5 5 5 5 5 5 5 5 4 5 5 5 5 6 6 6 6 6 7 7 7 7 7 7 7 7 7 7 6 6 6 6 6 6 6 6 6 6 5 5 5 5 5 5 5 5 5 5 6 5 5 5 5 5 5 5 5 5 5 5 5 5 5 5 5 5 4 4 4 4 4
5 5 5 5 5 5 5 5 5 6 6 6 6 5 5 5 5 5 5 5 5 5 4 4 4 5 5 5 5 6 6 6 6 7 7 7 7 7 7 6 6 6 6 6 6 6 6 6 6 6 6 5 5 5 5 5 5 5 4 5 5 5 5 5 5 5 5 5 5 5 5 5 5 5 5 4 4 4 4 4 4 4 4 4 4 4
5 5 5 5 5 5 5 5 6 6 6 5 5 5 5 5 5 5 4 4 4 4 4 4 4 5 5 5 5 5 5 5 6 6 7 7 7 7 6 6 6 6 6 6 6 5 6 6 6 5 5 5 5 5 5 5 4 4 4 4 4 4 4 4 4 4 4 4 4 4 4 4 4 4 4 4 4 4 4 4 4 4 4 4 4 4
5 5 5 5 5 5 5 5 5 5 5 5 5 5 5 5 4 4 4 4 4 4 4 4 4 4 5 5 5 5 5 5 5 5 6 6 6 6 6 6 6 5 5 5 5 5 5 5 5 5 5 5 5 5 4 4 4 4 4 4 4 4 4 4 4 4 4 4 4 4 4 4 4 4 4 4 4 4 4 4 4 4 4 4 4 4
4 4 4 4 4 5 5 5 5 5 5 5 5 5 4 4 4 4 4 4 3 3 3 3 4 4 5 5 4 5 5 5 5 5 5 5 5 6 6 5 5 5 5 5 5 5 5 5 5 5 5 5 4 4 4 4 4 4 4 4 4 4 4 3 3 3 3 3 3 3 4 4 4 4 4 4 4 4 4 3 3 3 3 3 3 3
4 4 4 4 4 4 4 4 4 5 4 4 4 4 4 4 4 4 4 3 3 3 3 3 3 4 4 5 5 4 4 4 4 4 5 5 5 5 5 5 5 5 5 5 5 5 5 5 5 5 5 4 4 4 4 4 4 4 4 4 4 4 3 3 3 3 3 3 3 3 3 3 3 3 3 3 3 3 3 3 3 3 3 3 3 3
4 4 4 4 4 4 4 4 4 4 4 4 4 4 4 4 4 4 3 3 3 3 3 3 3 3 3 4 4 4 4 4 4 4 4 4 4 4 4 4 5 4 4 5 5 5 5 5 4 4 4 4 4 4 4 4 3 3 3 3 3 3 3 3 3 3 3 3 3 3 3 3 3 3 2 2 2 2 2 2 2 2 2 2 2 2
4 4 4 4 4 4 4 4 4 4 4 4 4 4 4 4 4 3 3 3 3 3 3 3 3 3 3 4 4 4 4 4 4 4 4 4 4 4 4 4 4 4 4 4 4 4 4 4 4 4 4 4 4 4 3 3 3 3 3 3 3 3 3 3 3 3 2 2 2 2 2 2 2 2 2 2 2 2 2 1 1 1 1 2 2 2
4 4 4 4 4 4 4 4 4 4 4 4 3 3 3 3 3 3 3 3 3 3 3 3 3 3 3 3 3 4 3 3 3 4 3 4 4 4 4 4 4 4 4 4 4 4 4 4 4 4 4 4 4 4 3 3 3 3 3 3 3 3 3 3 2 2 2 2 2 2 2 2 2 2 2 2 2 1 1 1 1 1 1 1 1 1
4 3 4 4 3 3 3 3 3 3 3 3 3 3 3 3 3 3 3 3 3 3 3 3 3 3 3 3 3 3 3 3 3 3 3 3 3 4 4 4 4 4 4 4 4 4 4 4 4 4 4 3 3 3 3 3 3 3 3 3 3 3 2 2 2 2 2 2 2 2 2 2 2 2 1 1 1 1 1 1 1 1 0 1 1 1
4 3 3 3 3 3 3 3 3 3 3 3 3 3 2 2 2 3 3 3 3 3 3 3 3 3 3 3 3 3 3 3 3 3 3 3 3 4 4 4 4 4 4 4 4 4 4 4 4 4 3 3 3 3 3 3 3 3 3 3 3 3 2 2 2 2 2 2 2 2 2 1 1 1 1 1 1 1 1 1 1 0 0 0 0 0
3 3 3 3 3 3 3 3 3 3 3 3 3 3 2 2 2 2 2 2 2 2 2 2 2 2 2 2 2 3 3 3 2 2 2 3 3 3 3 3 3 3 4 4 4 4 4 3 3 3 3 3 3 3 3 3 3 3 3 3 3 3 2 2 2 2 2 2 2 2 1 1 1 1 1 1 1 1 1 1 0 0 0 0 0 0
3 3 3 3 3 3 3 3 3 3 3 3 3 3 2 2 2 2 2 2 2 2 2 2 2 2 2 2 3 3 3 2 2 2 2 2 3 3 3 3 3 3 3 3 3 3 3 3 3 3 3 3 3 3 3 3 3 3 3 3 2 2 2 2 2 2 2 2 2 1 1 1 1 1 1 1 1 1 1 0 0 0 0 -0 -0 -0
3 3 3 3 3 3 3 3 3 3 3 3 3 3 3 2 2 2 2 2 2 2 2 2 2 2 2 2 3 3 2 2 2 2 2 2 2 2 3 3 3 3 3 3 3 3 3 3 3 3 3 3 3 3 3 3 3 2 2 2 2 2 2 2 2 2 2 2 1 1 1 1 1 1 1 1 1 0 0 0 0 0 -0 -0 -0 -0
3 3 3 3 3 3 3 2 2 2 2 2 2 2 3 2 2 2 1 1 1 1 2 2 2 2 2 2 2 2 2 2 2 2 2 2 2 2 2 2 3 3 3 3 3 3 3 3 3 3 3 3 3 3 3 2 2 2 2 2 2 2 2 2 2 2 2 2 1 1 1 1 1 1 1 0 0 0 0 0 0 -0 -0 -0 -0 -0
3 3 2 2 2 2 2 2 2 2 2 2 2 2 2 2 1 1 1 1 1 1 1 1 1 2 1 2 2 2 2 2 2 2 1 1 1 1 2 2 2 2 2 2 2 2 2 3 3 3 3 3 3 3 2 2 2 2 2 2 2 2 2 2 2 2 2 1 1 1 1 1 1 0 0 0 0 0 0 0 -0 -0 -0 -0 -1 -1
2 2 2 2 2 2 2 2 2 2 2 2 2 2 2 2 1 1 1 1 1 1 1 1 1 1 1 1 2 2 2 2 2 1 1 1 1 1 1 1 2 2 1 2 2 2 2 2 3 3 3 3 3 3 2 2 2 2 2 2 1 1 1 1 1 1 1 1 1 1 1 1 0 0 0 0 0 0 0 -0 -0 -0 -0 -0 -1 -1
2 2 2 2 2 2 2 2 2 2 2 2 2 2 2 2 1 1 1 0 0 1 0 1 1 1 1 1 1 1 1 2 1 1 1 1 0 0 1 1 1 1 1 1 1 2 2 2 2 2 2 2 2 2 2 2 2 2 2 2 1 1 1 1 1 1 1 1 1 1 1 1 0 0 0 0 0 0 -0 -0 -0 -0 -0 -1 -1 -1
2 2 2 2 2 2 2 2 2 2 2 2 2 2 2 1 1 1 1 0 0 0 0 0 1 1 1 1 1 1 1 1 1 1 1 1 0 -0 0 0 1 1 0 1 1 1 1 2 2 2 2 2 2 2 2 2 2 2 1 1 1 1 1 1 1 1 1 1 1 1 1 0 0 0 0 0 0 -0 -0 -0 -0 -0 -0 -1 -1 -1
2 2 1 1 1 1 1 1 1 1 1 1 1 1 1 1 1 1 0 0 0 0 0 0 0 1 1 1 1 1 1 1 1 1 1 1 -0 -0 -0 -0 0 0 -0 0 1 0 -1 1 1 1 1 2 2 2 2 2 2 2 2 1 1 1 1 1 1 1 1 1 1 1 0 0 0 0 0 0 -0 -0 -0 -0 -0 -0 -0 -1 -1 -1
2 1 1 1 1 1 1 1 1 1 1 1 1 1 1 1 0 0 0 0 0 -0 -0 -0 0 0 0 0 1 1 1 1 1 0 0 0 0 -0 -0 -0 -0 -0 -0 -0 -0 -0 -1 -0 0 1 1 1 1 2 2 2 2 2 1 1 1 1 1 1 1 1 1 1 1 1 1 0 0 -0 -0 -0 -0 -0 -0 -0 -0 -0 -0 -0 -1 -1
1 1 1 1 1 1 1 1 1 1 0 0 0 0 0 0 0 0 0 0 0 0 -0 -0 -0 0 0 0 0 0 0 0 0 0 -0 0 -0 -0 -1 -0 -1 -1 -1 -1 -1 -1 -0 -0 -0 0 0 0 1 1 1 1 1 1 1 1 1 1 1 1 1 1 1 1 1 1 1 0 0 -0 -0 -0 -0 -0 -0 -0 -0 -0 -0 -0 -1 -1
1 1 1 1 1 1 1 1 0 0 0 0 0 0 0 0 0 0 0 0 0 0 -0 -0 -0 -0 -0 -0 -0 -0 -0 -0 -0 -0 -0 -0 -0 -1 -1 -1 -1 -1 -1 -1 -1 -1 -1 -1 -1 -0 -0 -0 0 0 0 0 1 1 1 1 1 1 1 1 1 1 1 1 1 1 1 0 0 -0 -0 -0 -0 -0 -1 -1 -1 -0 -0 -0 -1 -1
1 1 1 1 1 1 1 1 0 0 0 0 0 0 0 0 0 0 0 0 -0 -0 -0 -0 -0 -0 -0 -0 -0 -0 -0 -1 -1 -1 -1 -1 -1 -1 -1 -1 -1 -1 -1 -1 -1 -1 -1 -1 -1 -1 -1 -1 -0 -0 0 0 0 0 0 0 0 0 0 0 0 0 0 0 0 1 0 0 -0 -0 -1 -1 -1 -1 -1 -1 -1 -1 -0 -0 -0 -1
2 1 1 1 1 1 1 1 1 1 1 0 0 0 0 0 0 0 0 -0 -0 -0 -0 -0 -0 -0 -0 -1 -1 -1 -1 -1 -1 -1 -1 -1 -2 -2 -2 -2 -2 -2 -2 -2 -2 -2 -1 -1 -1 -1 -1 -1 -1 -0 -0 -0 -0 -0 -0 -0 -0 -0 -0 -0 -0 -0 -0 0 0 0 0 -0 -0 -1 -1 -1 -1 -1 -1 -1 -1 -1 -1 -0 -0 -1
2 2 1 1 1 1 1 1 1 1 1 1 0 0 0 -0 -0 -0 -0 -0 -0 -0 -0 -1 -1 -1 -1 -1 -1 -1 -1 -1 -1 -1 -2 -2 -2 -2 -2 -2 -2 -2 -2 -2 -2 -2 -2 -2 -2 -2 -1 -1 -1 -1 -1 -1 -1 -1 -1 -1 -1 -1 -0 -0 -0 -0 -0 -0 -0 -0 -0 -1 -1 -1 -1 -1 -1 -1 -1 -1 -1 -1 -1 -0 -0 -0
2 2 1 1 1 1 1 1 1 1 1 0 0 -0 -0 -0 -0 -0 -0 -0 -1 -1 -1 -1 -1 -1 -1 -1 -1 -1 -1 -1 -1 -2 -2 -2 -2 -2 -2 -2 -2 -2 -2 -2 -2 -2 -3 -3 -2 -2 -2 -1 -1 -1 -1 -1 -1 -1 -1 -1 -1 -1 -1 -1 -1 -1 -1 -1 -1 -1 -1 -1 -1 -1 -1 -1 -1 -1 -1 -1 -1 -1 -1 -1 -1 -0
2 2 2 1 1 1 1 1 1 1 0 0 -0 -0 -0 -0 -0 -0 -1 -1 -1 -1 -1 -1 -1 -1 -1 -1 -1 -1 -1 -2 -2 -2 -2 -2 -2 -2 -2 -2 -3 -3 -3 -3 -3 -3 -3 -3 -3 -3 -3 -2 -2 -2 -2 -2 -2 -2 -2 -2 -2 -1 -1 -1 -1 -1 -1 -1 -1 -1 -1 -1 -1 -1 -1 -1 -1 -1 -1 -1 -1 -1 -1 -1 -1 -1
2 2 2 1 1 1 1 1 1 0 0 0 -0 -0 -0 -1 -1 -1 -1 -1 -1 -1 -1 -1 -1 -2 -2 -2 -2 -2 -2 -2 -2 -2 -2 -2 -2 -2 -2 -3 -3 -3 -3 -3 -3 -3 -3 -3 -3 -3 -3 -3 -3 -3 -3 -3 -3 -2 -2 -2 -2 -2 -2 -2 -1 -1 -1 -1 -1 -1 -1 -1 -1 -2 -2 -2 -2 -1 -1 -1 -1 -1 -1 -1 -1 -1
2 1 1 1 1 1 1 1 1 0 0 0 -0 -0 -0 -1 -1 -1 -1 -1 -1 -1 -2 -2 -2 -2 -2 -2 -2 -2 -2 -2 -2 -2 -2 -2 -2 -2 -2 -3 -3 -3 -3 -3 -3 -3 -3 -3 -3 -3 -3 -3 -3 -4 -3 -3 -3 -3 -3 -3 -3 -2 -2 -2 -2 -1 -1 -1 -1 -1 -1 -1 -2 -2 -2 -2 -2 -2 -2 -1 -1 -1 -1 -1 -2 -2
1 1 1 1 1 1 1 1 1 0 0 0 -0 -0 -1 -1 -1 -1 -1 -1 -2 -2 -2 -2 -2 -2 -2 -2 -2 -2 -2 -2 -2 -2 -2 -2 -2 -2 -2 -3 -3 -3 -3 -3 -3 -3 -3 -3 -3 -3 -3 -3 -4 -4 -4 -3 -3 -3 -3 -3 -3 -3 -3 -2 -2 -2 -2 -1 -1 -1 -1 -1 -1 -2 -2 -2 -2 -2 -2 -2 -2 -2 -2 -1 -1 -2
1 1 1 1 1 1 1 1 1 0 0 -0 -0 -1 -1 -1 -1 -1 -2 -2 -2 -2 -2 -3 -3 -3 -3 -3 -2 -2 -2 -2 -2 -2 -2 -2 -2 -3 -3 -3 -3 -3 -3 -3 -3 -3 -3 -3 -3 -3 -3 -4 -4 -4 -4 -4 -3 -3 -3 -3 -3 -3 -3 -3 -2 -2 -2 -2 -2 -2 -1 -1 -2 -2 -2 -2 -2 -2 -2 -2 -2 -2 -2 -2 -2 -2
1 1 1 1 1 1 1 1 0 0 0 -0 -1 -1 -1 -1 -1 -2 -2 -2 -2 -2 -3 -3 -3 -3 -3 -3 -3 -3 -3 -3 -3 -3 -3 -3 -3 -3 -3 -3 -3 -3 -3 -3 -3 -3 -3 -3 -3 -3 -4 -4 -4 -4 -4 -4 -4 -3 -3 -3 -3 -3 -3 -3 -3 -3 -2 -2 -2 -2 -2 -2 -2 -2 -2 -2 -2 -2 -2 -2 -2 -2 -2 -2 -2 -2
1 1 1 1 1 1 1 0 0 -0 -0 -0 -1 -1 -1 -1 -2 -2 -2 -2 -3 -3 -3 -3 -4 -4 -3 -3 -3 -4 -4 -3 -3 -3 -3 -3 -3 -3 -3 -3 -3 -3 -3 -3 -3 -3 -3 -3 -3 -4 -4 -4 -4 -4 -4 -4 -4 -3 -3 -3 -3 -3 -3 -3 -3 -2 -2 -2 -2 -2 -2 -2 -2 -2 -2 -2 -2 -2 -2 -2 -2 -2 -2 -2 -2 -2
1 1 1 1 1 0 0 0 -0 -0 -0 -1 -1 -1 -1 -1 -2 -2 -2 -3 -3 -3 -3 -4 -4 -4 -4 -4 -4 -4 -4 -4 -4 -4 -4 -4 -3 -3 -3 -3 -3 -3 -3 -3 -3 -3 -3 -3 -3 -4 -4 -4 -4 -4 -3 -3 -3 -4 -4 -3 -3 -3 -3 -3 -3 -2 -3 -3 -3 -2 -2 -2 -2 -2 -2 -2 -2 -2 -2 -2 -2 -2 -2 -2 -2 -2
0 0 0 0 0 0 0 -0 -0 -0 -1 -1 -1 -1 -1 -2 -2 -2 -3 -3 -3 -3 -3 -3 -4 -4 -4 -4 -4 -4 -5 -5 -5 -5 -4 -4 -4 -4 -3 -3 -3 -3 -3 -3 -3 -3 -3 -3 -3 -3 -4 -4 -4 -4 -4 -3 -3 -4 -4 -4 -4 -4 -4 -3 -3 -3 -3 -3 -3 -3 -3 -3 -3 -2 -2 -2 -2 -2 -2 -2 -2 -2 -2 -2 -2 -2
0 0 0 0 0 0 -0 -0 -0 -0 -1 -1 -1 -1 -2 -2 -2 -3 -3 -3 -3 -3 -3 -4 -4 -4 -4 -4 -4 -4 -5 -5 -5 -5 -5 -5 -4 -4 -4 -4 -3 -3 -3 -3 -3 -3 -3 -3 -3 -3 -3 -3 -4 -4 -4 -3 -3 -4 -4 -4 -4 -4 -4 -4 -4 -3 -3 -3 -3 -3 -3 -3 -3 -3 -3 -3 -3 -3 -3 -2 -2 -2 -2 -2 -2 -2
0 -0 0 -0 -0 -0 -0 -0 -0 -0 -1 -1 -1 -1 -1 -2 -2 -3 -3 -3 -3 -3 -3 -4 -4 -4 -4 -4 -4 -4 -5 -5 -5 -5 -5 -5 -5 -4 -4 -4 -4 -4 -3 -3 -3 -3 -3 -3 -3 -3 -3 -3 -3 -3 -4 -3 -3 -4 -4 -4 -4 -4 -4 -4 -4 -4 -4 -4 -4 -3 -3 -3 -3 -3 -3 -3 -3 -3 -3 -3 -2 -2 -2 -2 -2 -2
-0 -0 -0 -0 -0 -0 -0 -0 -0 -0 -1 -1 -1 -1 -1 -2 -2 -2 -3 -3 -3 -3 -3 -3 -4 -4 -4 -4 -4 -4 -5 -5 -5 -5 -5 -5 -5 -5 -5 -4 -4 -4 -4 -4 -4 -4 -4 -4 -4 -3 -2 -2 -3 -3 -3 -4 -4 -4 -4 -4 -4 -4 -4 -4 -4 -4 -4 -4 -4 -4 -4 -4 -3 -3 -3 -3 -3 -4 -3 -3 -3 -2 -2 -2 -2 -2
Height
821 822 822 822 822 822 822 821 821 821 821 820 820 820 820 819 819 819 819 818 818 818 818 818 818 818 818 818 818 817 817 817 817 817 817 817 817 817 818 818 818 818 818 818 818 819 819 818 818 818 818 818 819 819 819 819 819 819 819 818 818 818 818 818 817 816 816 815 815 815 815 815 815 816 816 817 817 817 818 819 820 821 822 822 823 824
821 821 821 821 821 821 821 820 820 820 820 819 819 819 819 819 818 818 818 817 817 817 817 816 816 816 816 817 817 817 817 816 817 816 816 816 816 817 817 817 817 818 818 818 818 818 818 818 818 818 818 818 818 818 819 818 818 818 818 818 818 818 818 818 817 817 817 816 816 816 817 817 817 817 818 818 819 819 819 820 821 821 822 823 823 824
820 820 820 820 820 820 820 820 819 819 819 819 818 818 818 818 817 817 816 816 816 816 815 815 815 815 815 815 815 816 816 816 816 816 816 816 816 816 816 816 817 817 817 818 818 818 818 818 818 818 818 818 818 818 818 818 818 818 818 818 818 818 818 818 817 817 817 817 817 817 817 818 818 818 819 819 819 819 820 821 821 822 823 823 824 824
819 819 819 819 819 819 819 819 819 818 818 818 817 817 817 817 816 816 815 815 815 814 814 814 814 814 814 814 814 814 814 815 814 815 815 815 815 815 815 816 816 816 817 817 817 817 817 817 818 818 818 818 818 818 818 818 818 818 818 818 818 818 818 818 817 817 817 817 817 817 817 818 818 819 819 819 819 820 820 821 821 822 823 823 824 824
818 819 818 819 819 819 819 818 818 818 817 817 817 816 816 816 815 815 814 814 814 814 814 813 813 813 813 813 813 813 813 813 814 814 814 814 814 814 815 815 815 816 816 816 817 817 817 817 817 818 818 818 818 818 818 818 818 818 818 818 818 818 818 818 818 817 817 817 817 818 818 818 818 819 819 819 820 820 821 821 821 822 823 823 824 824
817 817 817 818 818 818 818 818 818 817 817 816 816 816 815 815 815 814 814 813 813 813 813 813 812 812 812 812 812 812 812 812 813 813 813 813 814 814 814 815 815 815 816 816 816 816 817 817 817 818 818 818 818 818 818 818 818 818 818 818 818 818 818 818 818 817 817 817 817 818 818 818 818 819 819 819 820 820 821 821 822 822 823 823 823 824
816 816 817 817 817 817 817 817 817 817 816 816 815 815 814 814 814 814 813 813 812 812 812 812 812 811 811 811 811 811 811 811 811 812 812 813 813 814 814 814 814 815 815 816 816 816 816 817 817 817 817 817 818 818 818 818 817 818 818 818 818 818 818 817 817 817 817 817 817 818 818 818 818 819 819 819 820 821 821 822 822 822 823 823 823 823
815 815 816 816 816 816 816 816 816 816 816 815 815 814 814 813 813 813 812 812 812 811 811 811 811 811 811 810 810 810 810 810 810 811 811 812 812 813 813 813 814 814 815 815 815 816 816 816 816 817 817 817 817 817 817 817 817 817 817 818 818 817 817 817 817 817 817 817 817 818 818 818 818 819 819 819 820 820 821 822 822 822 822 823 823 823
814 814 814 815 815 816 816 816 816 815 815 815 814 814 813 813 812 812 812 811 811 811 811 811 811 811 810 810 810 809 809 809 810 810 810 811 811 812 813 813 813 814 814 815 815 815 815 816 816 816 816 817 817 817 817 816 816 817 817 817 817 817 817 817 817 817 817 817 817 818 818 818 818 818 819 819 819 820 820 821 822 822 822 822 822 823
813 814 814 814 815 815 815 815 815 815 814 814 814 814 813 812 812 811 811 811 810 810 810 810 810 810 810 810 809 809 809 809 809 809 810 810 811 811 812 812 813 813 814 814 814 815 815 815 815 816 816 816 816 816 816 816 816 816 817 817 817 817 817 817 817 817 817 817 817 817 818 818 818 818 818 818 819 819 820 820 821 821 821 822 822 822
812 813 814 814 814 815 815 815 814 814 814 813 813 813 813 812 812 811 811 810 810 810 810 810 810 810 809 809 809 809 809 809 809 809 809 810 811 811 812 812 812 813 813 814 814 814 814 815 815 815 816 816 816 816 816 816 816 816 817 817 817 817 817 817 817 817 817 817 817 817 817 818 818 818 818 818 819 819 819 820 820 820 821 821 821 821
812 813 813 814 814 814 814 814 814 813 813 813 812 812 811 811 811 811 811 810 810 810 809 809 809 809 809 809 809 809 808 809 809 809 809 809 810 811 811 812 812 812 813 813 814 814 814 814 815 815 815 815 815 815 816 816 816 816 816 817 817 817 816 816 816 817 817 817 817 817 817 817 818 818 818 818 819 819 819 819 820 820 820 820 820 821
811 812 813 814 814 814 814 814 813 812 812 812 811 811 811 811 811 810 810 810 810 809 809 809 809 809 809 809 809 808 808 809 809 809 809 809 809 810 810 811 811 812 812 813 813 813 814 814 814 815 815 815 815 815 816 816 816 816 816 816 816 816 816 816 816 816 816 816 817 817 817 817 817 818 818 818 818 819 819 819 819 819 820 820 820 820
810 812 812 813 813 813 813 813 812 811 811 811 811 810 810 810 810 810 810 810 809 809 809 809 809 809 809 809 808 808 808 809 809 809 809 809 809 810 810 811 811 811 811 812 812 813 813 814 814 814 815 815 815 815 815 816 816 816 816 816 816 816 816 816 816 816 816 816 816 816 816 817 817 817 817 817 818 818 819 819 819 819 819 819 819 819
810 811 812 812 813 813 812 812 811 811 810 810 810 810 810 809 809 809 809 809 809 809 809 809 809 808 808 808 808 808 808 808 809 809 809 809 809 810 810 810 810 811 811 812 812 812 813 813 814 814 814 815 815 815 815 815 816 816 816 816 816 816 816 816 816 816 816 816 816 816 816 816 816 816 817 817 817 817 817 818 818 818 818 818 818 818
809 811 811 812 812 812 811 811 810 810 810 809 809 809 809 809 809 809 809 809 809 808 808 808 808 808 808 808 808 808 808 808 808 808 808 808 809 809 809 810 810 810 811 811 812 812 813 813 814 814 814 814 814 815 815 815 815 815 815 816 816 816 816 816 816 816 816 815 815 815 815 815 816 816 816 816 816 816 816 817 817 817 817 817 817 817
809 810 810 811 811 810 810 810 809 809 809 809 809 809 809 809 809 808 808 808 808 808 808 808 808 808 808 807 807 808 808 808 808 808 808 808 808 809 809 809 809 810 810 811 811 812 812 813 813 814 814 814 814 814 814 815 815 815 815 815 815 815 815 815 815 815 815 815 815 815 815 815 815 815 815 815 815 815 815 815 815 815 816 816 816 816
809 809 809 809 809 809 809 809 809 809 808 808 808 808 808 808 808 808 808 808 808 808 808 808 808 808 808 807 807 807 807 807 808 808 808 808 808 808 809 809 809 809 810 811 811 812 812 813 813 813 813 814 814 814 814 814 814 814 814 814 814 814 814 815 815 815 815 815 815 814 814 814 814 814 814 814 814 814 814 814 814 814 814 814 815 815
808 808 808 809 809 808 808 808 808 808 808 808 808 808 808 808 807 807 807 807 807 807 808 808 808 808 808 807 807 807 807 807 807 807 808 808 808 809 809 809 809 809 810 810 811 811 812 812 812 813 813 813 813 813 814 814 814 814 814 814 814 814 814 814 814 814 814 814 814 814 814 814 814 814 814 814 814 813 813 813 814 814 814 814 814 814
807 807 807 807 807 807 808 807 807 807 807 807 807 807 807 807 807 807 807 807 807 807 807 807 807 807 807 807 807 807 807 807 807 807 807 808 808 808 809 809 809 809 809 810 810 811 811 812 812 812 813 813 813 813 813 813 813 813 813 813 813 813 813 813 813 814 814 814 814 814 814 813 813 813 813 813 813 813 813 813 813 813 813 813 813 813
806 806 806 806 807 807 807 807 807 807 807 807 807 807 807 807 807 806 806 806 806 806 807 807 807 807 807 807 807 807 807 807 807 806 807 807 807 808 808 808 809 809 809 809 810 810 811 811 811 812 812 812 813 813 813 813 813 813 813 813 813 813 813 813 813 813 813 813 813 813 813 813 813 813 813 813 813 812 812 812 812 812 812 812 812 812
805 805 805 806 806 806 806 806 806 806 806 806 806 806 806 806 806 806 806 806 806 806 806 806 806 806 806 806 806 806 806 806 806 806 806 806 806 807 807 807 808 808 809 809 809 810 810 810 811 811 811 812 812 812 812 813 813 813 813 813 813 812 812 812 812 812 812 812 812 812 812 812 812 812 812 812 812 812 812 812 812 812 812 812 812 812
804 804 805 805 805 805 806 806 806 806 806 806 806 806 806 806 806 806 806 806 806 806 806 806 806 806 806 806 806 806 806 806 806 806 806 806 806 806 806 807 807 807 808 808 809 809 809 810 810 810 811 811 811 811 811 812 812 812 812 812 812 812 812 812 812 812 812 812 812 812 812 811 811 811 811 811 811 811 811 811 811 811 811 811 811 811
804 804 804 804 805 805 805 805 805 805 805 805 805 805 805 805 805 805 806 806 806 806 806 806 806 806 806 806 806 806 806 806 806 806 806 805 805 805 805 806 806 806 807 807 808 808 809 809 809 809 810 810 810 810 810 811 811 811 811 811 811 811 811 811 811 811 811 811 811 811 811 811 811 811 811 811 811 811 811 810 810 810 811 810 810 810
804 804 804 804 804 804 805 805 805 805 805 805 805 805 805 805 805 805 805 805 805 806 806 805 805 805 805 805 805 805 805 805 805 805 805 805 805 804 805 805 805 806 806 806 807 807 807 808 808 808 809 809 809 809 809 809 809 810 810 810 810 810 810 810 810 810 810 810 810 810 810 810 810 810 810 810 810 810 810 810 810 810 810 810 810 809
803 803 803 804 804 804 804 804 804 804 804 805 804 804 804 804 804 805 805 805 805 805 805 805 805 805 805 805 805 805 805 805 805 805 805 804 804 804 804 804 805 805 805 805 806 806 806 806 806 807 807 807 808 808 808 808 808 809 809 809 809 809 809 809 809 809 809 809 809 809 809 809 809 809 809 809 809 809 809 809 809 809 809 809 809 809
803 803 803 803 804 804 804 804 804 804 804 804 804 804 804 804 804 804 804 805 805 805 805 805 805 805 805 804 804 804 804 804 804 804 804 804 804 804 804 804 804 805 805 805 805 805 805 805 805 805 806 806 806 806 807 807 807 807 807 807 808 808 808 808 809 809 808 808 808 808 808 809 809 809 809 809 809 809 809 809 809 809 809 809 809 808
802 803 803 803 803 804 804 804 804 804 804 804 804 804 804 804 804 804 804 804 804 804 804 804 804 804 804 804 804 804 804 804 804 804 804 804 804 804 804 804 804 804 804 804 804 804 804 804 804 804 804 804 804 805 805 805 805 805 805 805 806 806 807 807 807 807 807 807 807 807 807 808 808 808 808 808 808 808 808 808 808 808 808 808 808 808
802 802 803 803 803 803 804 804 804 804 804 804 804 804 804 804 804 804 804 804 804 804 804 804 804 804 804 804 804 804 804 804 804 804 804 804 804 804 804 804 804 804 804 804 804 803 802 802 802 802 802 802 803 803 803 803 803 804 804 804 804 804 805 805 806 806 806 806 806 806 806 806 807 807 807 807 807 807 807 807 807 807 807 807 807 807
802 802 802 803 803 803 803 804 804 804 804 804 804 804 804 804 804 804 804 804 804 804 803 803 803 803 803 804 804 803 803 803 803 803 803 803 803 803 804 804 804 804 804 804 804 802 801 800 800 800 801 801 801 801 802 802 802 802 802 803 803 803 804 804 804 804 805 805 805 805 805 805 805 806 806 806 806 806 806 806 806 806 806 806 806 806
802 802 802 802 803 803 803 803 804 804 804 804 804 804 804 804 804 804 804 803 803 803 803 803 803 803 803 803 803 803 803 803 803 803 803 803 803 803 804 804 804 804 804 804 804 803 801 800 800 800 800 800 800 800 801 801 801 801 801 802 802 802 802 802 803 803 803 804 804 804 804 804 804 804 805 805 805 805 805 805 805 806 805 805 805 805
801 802 802 802 802 803 803 803 803 803 804 804 804 803 803 803 803 803 803 803 803 803 803 803 803 803 803 803 803 803 803 803 803 803 803 803 803 803 803 804 804 804 804 804 804 803 802 800 800 800 800 800 800 800 800 800 800 800 801 801 801 801 801 801 801 802 802 802 802 802 803 803 803 803 804 804 804 804 804 804 804 805 805 805 804 804
801 801 802 802 802 803 803 803 803 803 803 803 803 803 803 803 803 803 803 803 803 802 802 802 802 802 802 802 802 802 802 803 803 803 803 803 803 803 803 803 803 804 804 804 804 803 802 800 800 800 800 800 800 800 800 800 800 800 800 800 800 800 800 800 800 800 800 800 800 801 801 801 802 802 802 803 803 803 803 803 804 804 804 804 804 804
801 801 801 802 802 802 803 803 803 803 803 803 803 803 803 803 803 803 803 802 802 802 802 802 802 802 802 802 802 802 802 802 802 802 803 803 803 803 803 803 803 803 803 803 803 803 802 801 800 800 799 799 799 799 799 799 799 799 799 799 799 799 799 799 799 799 799 799 799 799 799 800 800 800 801 801 802 802 802 802 803 803 803 803 803 803
800 801 801 801 802 802 802 803 803 803 803 803 803 803 803 803 803 802 802 802 802 802 802 801 801 801 801 801 801 802 802 802 802 802 802 802 802 802 802 802 802 802 802 802 802 802 801 800 800 800 799 799 798 798 798 799 799 798 798 798 798 798 798 798 798 798 797 797 797 797 797 798 798 799 799 800 800 800 801 801 802 802 802 803 802 802
800 800 801 801 801 802 802 802 803 803 803 803 803 803 803 802 802 802 802 802 802 801 801 801 801 801 801 801 801 801 801 801 801 801 802 802 802 802 802 802 802 802 802 802 801 801 800 800 800 799 799 799 798 798 797 797 798 798 797 797 797 797 797 797 796 796 796 796 796 796 796 796 797 797 798 798 799 799 800 800 800 801 801 802 802 802
800 800 800 801 801 801 802 802 802 802 802 802 802 802 802 802 802 802 802 801 801 801 801 801 800 800 800 800 800 800 800 801 801 801 801 801 801 801 801 801 801 801 801 801 801 800 800 800 799 799 798 798 798 797 797 797 797 797 797 796 796 796 796 795 795 795 795 795 795 795 795 795 795 796 796 797 797 798 798 799 799 800 800 801 801 801
799 800 800 800 800 801 801 801 802 802 802 802 802 802 802 802 802 801 801 801 801 801 801 800 800 800 800 800 800 800 800 800 800 800 800 800 800 800 800 800 800 800 800 800 800 800 800 799 799 798 798 797 797 797 796 796 796 796 796 795 795 795 795 795 795 794 794 794 794 794 794 794 794 795 795 795 796 796 797 797 798 799 799 800 800 801
799 799 799 800 800 800 800 801 801 801 801 802 802 802 801 801 801 801 801 801 801 800 800 800 800 800 800 800 800 800 800 800 800 800 800 800 800 799 799 799 799 799 799 799 799 799 799 799 798 798 797 797 796 796 796 796 795 795 795 795 794 794 794 794 794 794 793 793 793 793 793 793 793 794 794 795 795 795 795 796 797 797 798 799 800 800
798 798 799 799 799 800 800 800 800 801 801 801 801 801 801 801 801 801 801 800 800 800 800 800 800 799 799 799 799 799 799 799 799 799 799 799 799 798 798 798 798 798 798 798 798 798 798 798 797 797 797 796 796 795 795 795 795 795 794 794 794 793 793 793 793 793 793 792 792 792 792 792 793 793 793 794 794 795 795 795 796 796 797 798 799 799
797 797 798 798 799 799 799 800 800 800 800 800 800 800 800 800 800 800 800 800 800 800 799 799 799 799 799 799 799 799 799 799 798 798 798 798 798 797 797 797 797 797 797 797 797 797 797 797 796 796 796 795 795 795 794 794 794 794 794 793 793 793 792 792 792 792 792 792 791 791 791 792 792 792 793 793 793 794 794 795 795 796 796 797 797 798
796 797 797 798 798 798 799 799 799 800 800 800 800 800 800 800 800 800 800 800 799 799 799 799 799 798 798 798 798 798 798 798 798 798 797 797 797 797 796 796 796 796 796 796 796 796 796 795 795 795 795 795 794 794 793 793 793 793 793 792 792 792 792 791 791 791 791 791 791 791 791 791 791 791 792 792 793 793 794 794 795 795 795 796 796 797
795 796 796 797 797 798 798 798 799 799 799 799 800 800 800 800 800 799 799 799 799 799 798 798 798 798 798 798 798 798 798 797 797 797 797 796 796 796 796 796 795 795 795 795 795 795 795 795 794 794 794 794 794 793 792 791 791 791 791 791 791 791 791 791 790 791 791 791 791 791 791 791 791 791 791 792 792 792 793 793 794 794 795 795 795 796
795 795 795 796 797 797 797 798 798 798 799 799 799 799 799 799 799 799 798 798 798 798 798 797 797 797 797 797 797 797 797 796 796 796 796 795 795 795 795 795 795 795 795 794 794 794 793 793 793 793 793 793 792 792 791 790 790 790 790 790 790 791 790 790 790 790 790 790 790 790 790 790 790 790 790 791 791 791 792 792 793 793 794 794 795 795
794 794 795 795 796 796 796 797 797 798 798 798 798 798 798 798 798 798 798 797 797 797 797 797 797 796 796 796 796 795 795 795 795 795 795 795 795 794 794 794 794 794 794 793 793 793 792 792 792 792 792 792 791 791 790 790 789 789 789 789 790 790 789 789 789 789 790 790 790 790 790 790 790 790 790 790 790 790 791 791 792 792 793 793 794 794
793 793 794 794 795 795 796 796 797 797 797 797 797 798 797 797 797 797 797 797 797 796 796 796 796 796 795 795 795 795 794 794 794 794 794 794 793 793 793 793 793 793 792 792 792 792 791 791 791 791 791 790 790 789 789 789 788 788 788 788 788 788 788 788 788 789 789 789 789 789 789 789 789 789 789 789 789 789 790 790 791 791 792 792 793 793
792 792 793 793 794 794 795 795 796 796 796 796 796 797 797 796 796 796 796 796 796 796 796 796 796 795 795 795 794 794 793 793 793 792 792 792 792 792 792 792 792 792 791 791 791 791 790 790 790 790 790 789 788 787 787 787 787 787 787 787 787 787 787 787 787 787 788 788 788 788 788 788 788 788 788 788 788 788 789 789 790 790 791 791 792 792
791 791 791 792 793 793 794 794 795 795 795 795 795 795 796 796 795 795 795 795 795 795 795 795 795 795 794 794 793 793 793 792 792 791 791 791 791 791 791 791 791 790 790 790 790 790 790 789 789 789 789 788 787 786 785 785 786 786 786 786 786 786 786 786 786 786 787 787 787 787 787 787 787 787 787 787 787 787 787 788 789 789 790 790 790 791
790 790 791 791 792 792 793 793 794 794 794 794 795 795 795 795 795 795 795 795 795 795 795 795 795 794 794 793 793 792 792 792 791 791 790 790 790 790 790 790 790 790 790 789 789 789 788 788 788 787 787 787 786 785 785 785 785 785 785 785 785 785 785 785 785 785 785 785 786 786 786 786 786 787 787 787 786 786 786 787 787 788 788 789 789 790
789 790 790 790 791 791 791 792 792 793 793 793 793 794 794 794 794 794 794 794 794 794 794 794 794 793 793 792 792 792 791 791 790 790 790 790 789 789 789 789 789 789 789 789 788 788 788 787 786 786 786 785 785 785 784 784 784 784 785 785 785 785 785 784 784 784 784 785 785 785 785 785 785 786 786 786 785 785 785 785 786 786 787 788 788 788
788 789 789 789 790 790 790 791 791 791 792 792 792 793 793 793 793 793 793 793 793 793 793 793 793 793 792 792 792 791 791 790 790 789 789 789 788 788 788 788 788 788 788 788 788 787 787 786 786 785 785 785 785 784 784 784 784 784 784 784 784 784 784 784 784 784 784 784 784 784 784 784 785 785 785 785 785 785 785 785 785 785 785 786 787 787
Wind_Speed
5 5 4 4 4 4 4 5 5 6 7 9 10 11 12 13 14 14 13 12 12 11 11 10 10 9 9 7 6 5 5 6 7 8 8 9 9 8 8 9 9 9 9 9 9 8 7 5 4 4 4 4 5 6 6 6 6 5 5 3 1 1 2 3 3 4 5 6 8 10 11 13 14 15 16 16 16 16 15 14 13 12 10 9 8 7
6 6 5 5 6 6 7 8 8 9 11 13 14 15 16 16 16 15 14 13 12 11 11 10 10 10 9 8 7 6 6 6 7 8 9 9 9 9 9 9 9 10 9 9 7 6 4 4 3 3 3 4 5 6 6 7 6 6 5 4 3 2 3 4 5 5 4 3 4 5 5 6 7 9 9 10 11 11 11 10 9 8 7 6 6 5
6 6 7 8 8 8 9 10 12 12 14 15 16 17 16 16 16 15 14 13 12 11 10 10 10 10 10 9 9 8 8 8 8 9 9 10 10 10 9 9 9 9 8 7 5 3 3 3 3 3 4 5 5 5 5 5 5 5 4 5 4 4 5 5 5 4 3 2 2 2 3 3 3 4 5 6 7 7 7 7 6 6 5 5 5 5
6 7 8 9 10 10 11 12 13 14 15 16 16 16 15 14 14 13 12 11 10 9 9 9 9 9 9 10 9 9 9 10 10 10 10 11 11 10 9 9 9 9 7 5 3 2 2 2 3 4 5 6 5 4 3 3 4 4 5 5 5 5 5 6 6 5 3 2 2 3 3 3 4 5 6 6 6 6 6 6 6 6 5 5 4 4
8 8 9 10 10 11 12 12 13 14 15 15 15 14 13 12 12 12 11 10 8 8 8 8 8 8 8 8 9 10 10 11 11 11 11 11 12 12 11 11 10 9 7 5 4 3 3 3 4 5 7 6 5 3 3 3 4 4 5 6 6 6 6 6 6 5 4 3 3 3 3 4 4 5 5 6 6 6 6 6 6 6 5 5 5 4
8 8 10 10 10 10 12 13 14 14 14 14 14 14 13 12 12 12 11 10 9 8 8 8 8 8 7 7 8 9 11 12 12 11 11 11 11 12 13 12 11 10 8 7 6 5 5 5 5 6 7 6 5 4 4 4 5 5 6 6 6 6 6 6 6 6 5 4 4 4 4 4 4 4 5 5 5 5 5 5 5 5 5 5 5 5
8 8 9 9 10 11 12 13 13 13 13 13 14 14 14 14 13 12 11 10 9 9 8 8 8 8 7 7 7 7 9 12 13 13 12 11 11 11 13 13 12 10 9 8 7 7 7 6 7 8 8 7 5 4 5 5 5 6 7 8 7 6 6 6 7 7 6 5 5 5 5 5 5 5 5 5 5 5 5 5 5 4 4 4 4 4
7 8 9 9 10 12 12 12 12 12 12 13 14 15 16 15 14 12 11 10 9 9 8 7 7 7 7 6 5 5 7 10 12 13 13 12 11 11 13 13 12 11 10 9 9 8 8 8 9 9 8 6 4 4 5 5 5 6 7 9 9 8 7 7 7 7 7 7 6 6 6 6 6 6 7 6 6 6 6 5 4 4 3 3 3 3
7 8 9 10 10 11 11 11 10 11 11 12 13 14 15 15 14 12 11 11 10 9 8 8 7 7 6 5 4 4 4 6 9 11 12 12 11 11 13 13 13 12 11 10 10 10 10 10 10 10 8 6 4 3 4 4 4 5 7 9 10 10 9 8 8 8 8 7 7 7 7 7 8 8 8 8 8 7 7 6 5 4 3 3 3 3
7 8 9 10 10 10 10 10 10 10 11 12 13 13 13 12 12 11 11 11 11 11 9 9 8 8 7 5 4 3 2 3 5 7 8 9 10 11 13 14 14 13 12 12 12 12 12 12 11 9 6 4 2 3 3 3 3 5 8 9 10 10 10 9 9 8 8 7 7 7 8 8 8 9 9 9 8 8 8 7 7 6 6 5 4 4
7 7 8 9 9 9 9 9 10 11 12 13 12 11 10 9 9 9 10 10 11 12 11 10 10 9 8 6 4 2 1 1 2 4 6 7 9 12 14 15 14 14 13 13 13 13 13 12 10 7 4 2 1 2 2 2 4 6 8 9 9 10 10 10 10 9 9 8 8 8 7 7 8 8 8 8 8 8 8 9 9 9 8 8 7 6
6 6 7 8 8 8 8 9 10 11 11 11 11 10 9 7 7 7 8 9 10 11 12 11 11 10 9 7 5 2 1 1 3 4 6 9 11 13 15 15 15 14 14 13 13 13 12 11 9 6 3 1 1 1 1 2 4 6 7 8 9 9 10 10 10 10 10 9 8 8 7 7 7 7 7 7 7 8 8 9 9 9 9 8 8 7
6 7 7 8 9 9 9 10 10 10 10 10 10 9 7 6 6 6 7 8 9 11 11 11 11 10 9 7 5 2 1 3 5 7 8 10 13 15 16 16 15 15 14 14 13 12 11 10 7 5 2 1 1 1 1 2 4 5 6 8 9 10 10 11 11 11 10 10 9 8 8 7 7 7 7 7 8 8 9 10 10 10 9 9 8 8
7 8 8 9 9 10 10 10 9 9 9 9 8 7 6 6 6 6 7 8 10 11 11 11 10 10 9 7 4 3 3 6 8 10 11 12 14 15 16 16 15 15 15 14 13 12 11 9 7 4 2 1 1 1 1 2 4 5 6 7 9 10 11 11 11 11 10 10 9 8 8 8 8 8 8 8 8 9 10 11 11 11 11 11 11 11
8 8 8 8 9 9 8 7 7 7 7 7 6 5 5 6 7 7 8 9 10 11 11 10 10 9 8 6 4 3 5 8 10 13 14 15 15 16 17 16 16 16 15 14 13 12 11 8 6 4 3 2 1 1 1 2 3 5 6 7 8 9 10 10 10 10 9 8 8 7 7 8 8 9 9 9 10 11 12 13 13 14 15 15 15 15
8 8 7 8 8 8 7 6 6 6 6 6 5 5 5 6 8 9 9 8 9 9 9 9 8 7 5 4 3 3 5 8 10 13 16 16 17 17 17 17 17 16 15 14 12 11 10 8 6 4 3 2 1 0 1 1 3 4 6 7 8 9 9 9 9 9 8 8 7 7 7 8 8 9 9 10 11 12 13 13 14 15 15 16 16 15
8 8 8 8 8 8 7 7 7 6 6 6 6 6 7 7 8 9 9 8 8 7 7 6 4 3 3 3 3 2 3 6 9 11 13 14 16 17 18 17 16 16 15 13 12 11 9 8 7 5 4 2 2 1 1 2 3 4 5 6 7 8 9 9 9 9 8 8 8 8 8 8 8 9 9 10 10 11 11 12 12 13 13 13 13 13
8 8 7 8 7 6 6 6 6 6 7 6 7 7 8 8 8 8 7 7 6 6 6 5 4 3 4 3 3 3 2 4 7 10 11 12 13 15 17 16 16 15 14 13 11 10 9 8 7 6 5 4 3 3 3 3 3 4 5 6 7 7 8 8 8 8 8 8 8 8 8 8 8 8 8 9 9 9 9 9 9 10 10 10 10 11
8 8 7 7 6 6 6 6 7 7 7 7 7 8 8 8 8 7 6 5 6 6 6 5 5 4 4 4 4 4 3 3 4 7 10 11 11 13 14 14 14 14 14 13 11 10 10 9 8 7 6 6 5 5 4 4 5 5 6 7 7 8 8 8 8 8 8 8 8 8 8 8 8 8 8 8 8 8 8 8 8 8 8 8 9 9
9 8 8 7 7 6 7 7 8 8 7 8 8 8 8 7 6 5 5 4 5 5 6 7 7 6 6 6 6 5 3 3 3 5 8 10 11 12 13 13 13 14 14 13 12 11 11 10 10 9 8 7 7 6 6 6 6 6 7 7 8 9 9 9 9 9 9 9 9 9 9 8 8 8 8 8 8 8 8 8 8 8 8 8 8 8
9 9 9 8 8 7 7 7 8 8 8 8 8 8 7 7 6 5 4 3 4 4 6 7 8 8 7 7 6 5 4 4 3 4 6 8 10 12 13 14 14 14 14 14 13 13 12 12 11 11 10 9 9 8 8 7 7 7 7 8 9 10 11 11 11 11 10 10 10 9 9 9 9 9 8 8 8 8 7 7 8 8 8 8 8 8
9 9 9 8 8 7 7 8 8 8 8 8 8 8 7 6 5 5 4 3 3 4 5 6 7 7 7 7 6 6 5 4 3 3 4 5 7 10 12 14 15 15 15 15 15 14 13 13 13 12 12 11 11 11 10 10 9 8 8 9 10 11 12 12 12 12 12 11 11 10 10 10 9 9 9 9 9 8 8 8 8 8 9 9 9 9
7 8 8 8 8 8 8 8 8 8 8 8 8 8 7 6 5 5 4 4 3 3 4 4 5 6 6 6 6 6 6 5 4 4 4 4 5 7 10 12 14 15 15 16 15 15 15 14 14 14 13 13 13 13 13 12 11 10 10 10 11 12 12 13 13 13 13 12 12 11 11 10 10 10 9 9 9 9 9 8 8 8 9 9 9 9
5 6 7 7 8 8 8 8 9 8 8 8 8 7 6 6 5 5 5 5 5 4 4 4 5 5 5 5 6 6 6 5 5 5 5 4 5 6 8 10 11 13 15 16 16 16 16 16 15 15 15 15 15 15 15 14 14 13 12 12 12 12 13 13 14 14 14 14 13 12 12 11 11 10 10 10 10 10 9 9 9 9 9 9 10 10
4 5 5 6 6 7 7 8 8 8 8 7 7 6 6 6 6 6 6 7 6 6 5 5 5 5 5 5 5 5 5 5 5 5 5 4 5 6 8 8 10 11 13 14 15 16 16 16 16 16 16 16 16 16 16 16 16 16 15 14 14 13 13 14 14 15 15 15 14 14 13 12 11 11 11 11 10 10 10 9 9 9 9 9 10 10
3 4 4 5 5 6 7 7 7 7 7 7 6 6 6 6 6 7 7 7 7 6 6 5 5 5 6 5 5 4 4 5 5 6 6 5 4 6 8 8 9 10 11 12 13 14 15 15 16 16 16 15 15 16 16 16 16 17 17 16 16 15 14 15 15 15 15 16 15 14 13 13 12 12 11 11 11 11 10 10 9 9 9 10 10 10
3 4 4 4 5 5 5 5 6 6 6 6 6 6 6 6 5 5 5 6 6 6 5 4 4 5 5 5 4 4 4 4 4 5 6 6 5 5 6 8 8 9 10 11 12 13 14 14 15 15 15 15 15 15 16 16 16 17 17 17 17 17 16 16 16 16 16 16 16 15 14 13 12 12 12 12 11 11 11 10 10 9 9 10 10 11
3 3 4 4 4 3 3 3 4 4 4 5 5 6 5 5 4 4 4 4 5 5 5 5 5 4 4 3 3 4 5 5 4 5 5 6 5 4 5 7 8 8 9 10 12 14 15 15 16 16 16 16 16 16 16 16 16 16 17 17 17 17 17 16 16 16 16 16 16 15 14 14 13 13 12 12 12 11 11 10 10 9 9 10 11 11
2 3 3 2 2 2 2 2 3 3 4 4 4 4 4 4 3 4 4 3 4 4 4 5 5 5 3 3 4 5 6 6 5 5 5 5 5 5 6 7 7 8 8 8 9 11 13 15 16 16 15 15 15 16 16 16 16 16 16 16 16 17 17 17 16 16 16 16 16 15 15 14 14 13 13 13 12 12 12 11 10 10 10 11 11 12
2 2 2 2 2 2 2 2 3 3 3 4 4 3 3 3 3 3 3 3 3 4 4 4 5 4 4 3 4 4 4 4 4 4 5 5 5 5 7 7 7 7 6 5 4 5 7 9 11 11 11 11 12 12 13 13 13 14 14 14 15 16 17 17 17 17 17 17 17 16 16 15 15 14 14 13 13 13 12 11 11 10 11 11 12 12
1 1 1 2 2 2 2 2 2 3 3 3 3 3 2 2 2 2 3 3 3 4 4 4 4 4 4 3 2 1 2 1 2 3 4 4 4 5 6 6 7 7 6 4 2 2 2 3 4 5 5 5 6 6 7 8 9 10 10 11 12 13 14 15 17 17 18 18 18 18 17 17 16 15 15 14 14 13 13 12 11 11 11 12 12 12
2 2 2 2 2 2 2 2 2 2 2 2 2 2 2 1 1 1 2 2 2 3 4 4 5 5 5 4 3 2 2 1 2 3 4 4 4 5 6 6 6 7 7 6 5 3 1 2 2 2 2 2 2 3 4 5 5 6 7 7 8 9 10 12 13 15 17 18 18 19 18 18 17 16 16 15 14 14 14 13 12 11 12 13 13 13
2 3 3 3 3 2 2 2 2 1 1 1 1 1 1 1 1 1 2 2 2 3 3 4 5 5 5 6 6 5 4 4 4 5 5 4 4 5 5 6 6 7 7 8 8 6 4 4 3 3 4 5 6 6 6 6 6 6 6 7 7 7 8 9 11 13 14 16 17 18 18 18 18 17 16 15 15 14 14 13 13 12 12 13 14 14
3 3 3 3 3 3 2 2 2 1 1 1 1 1 1 1 2 2 2 2 2 3 3 4 5 6 6 6 6 6 6 6 6 6 6 5 4 4 5 6 6 7 7 8 8 8 6 7 6 5 6 7 8 8 8 9 9 9 9 10 10 10 10 11 11 12 13 14 16 17 17 18 18 17 17 16 15 15 14 14 13 13 12 14 14 15
4 4 4 4 4 3 3 2 2 1 1 1 1 1 1 1 2 2 2 3 3 3 4 4 5 6 6 6 6 6 6 6 6 6 6 5 5 5 5 6 6 6 7 7 6 5 5 7 7 7 5 6 7 9 9 9 9 10 10 11 11 11 11 11 12 13 13 14 14 15 16 16 17 17 18 17 17 16 15 15 14 13 13 14 15 16
5 6 5 5 5 4 4 3 2 1 1 0 1 1 1 2 2 2 3 3 3 4 4 4 5 5 6 6 6 6 7 7 7 7 7 6 6 6 6 6 6 6 7 7 7 6 5 6 7 8 7 6 6 7 7 7 8 8 9 9 9 9 10 10 11 11 12 13 13 14 14 14 15 16 17 18 18 18 17 16 15 14 14 14 15 16
6 7 7 6 6 5 4 4 3 2 1 0 1 1 2 2 3 3 3 3 3 4 4 4 5 5 5 6 6 6 7 7 8 8 8 8 8 7 7 7 7 7 7 8 8 8 7 7 7 8 7 7 6 5 5 6 7 8 8 8 8 8 8 9 9 10 11 11 12 12 12 12 13 13 14 15 16 17 17 17 15 14 14 14 15 16
7 8 8 7 7 6 6 5 4 3 1 0 0 1 2 3 3 4 4 4 4 4 4 4 5 5 5 5 5 6 6 7 7 8 8 8 8 8 8 9 9 9 9 9 9 10 9 8 7 7 7 7 7 7 7 7 8 8 8 8 8 8 8 8 9 9 10 11 11 11 11 11 11 11 11 12 14 15 16 16 15 14 14 14 15 15
9 9 8 8 8 8 7 7 6 4 2 1 1 2 3 3 4 5 5 5 5 5 5 5 5 5 5 5 5 5 6 6 6 7 7 8 8 9 9 9 9 9 9 10 10 11 10 9 8 7 7 7 8 8 8 8 8 8 9 9 10 9 9 8 9 9 10 10 10 11 11 10 10 10 10 10 11 13 14 15 15 14 14 14 15 15
9 9 9 9 9 9 9 8 7 5 4 3 3 3 4 4 5 6 6 6 6 6 6 6 6 6 6 6 5 5 5 5 6 6 7 7 8 8 8 8 8 9 9 10 11 11 11 11 11 11 10 9 9 10 10 10 11 11 11 10 9 8 9 9 9 9 10 9 10 10 11 11 10 10 10 10 11 12 13 14 14 14 14 14 15 16
10 9 9 8 8 9 9 8 7 7 6 6 5 5 5 5 6 6 7 8 8 8 7 7 7 7 6 6 5 5 5 5 6 6 6 6 7 7 7 7 8 8 8 9 10 11 12 13 13 14 14 14 14 15 15 15 15 15 14 12 11 11 11 11 10 10 9 8 8 9 10 11 11 11 11 11 11 11 12 13 14 15 15 15 16 16
10 10 9 8 8 9 9 9 9 8 8 7 7 6 6 6 6 7 8 8 8 8 8 8 7 7 6 6 5 4 4 5 5 5 5 5 6 6 6 6 7 7 8 9 10 11 12 13 14 15 15 15 15 15 16 17 17 16 15 15 14 14 12 10 8 7 6 6 7 7 8 10 12 12 13 12 12 12 12 13 14 15 16 16 16 17
10 9 8 8 9 9 10 10 10 10 9 9 8 7 7 7 7 8 9 9 9 8 8 7 7 7 7 7 6 5 4 4 4 4 4 5 5 5 5 6 6 7 8 9 10 11 11 12 13 13 14 14 14 15 16 17 17 16 15 14 14 12 8 7 7 7 7 7 7 7 8 9 10 12 13 14 14 14 13 14 14 15 16 17 18 18
10 9 9 9 10 10 11 11 11 11 10 9 9 8 8 8 9 9 9 9 8 8 7 7 7 8 8 8 7 6 6 5 5 5 5 5 5 5 6 6 7 7 8 9 10 11 11 12 13 13 12 13 14 15 16 17 17 16 15 14 13 13 11 10 10 10 10 10 9 9 9 8 9 10 12 14 15 15 15 15 15 16 16 17 18 18
10 10 11 11 12 12 12 12 11 11 10 10 9 8 8 9 9 10 9 9 8 7 6 6 7 7 7 7 7 8 8 8 7 6 5 5 6 6 7 7 8 8 9 9 10 10 12 13 13 12 12 13 14 15 16 17 17 17 16 14 14 14 14 15 14 14 13 12 12 11 10 10 9 10 11 13 15 16 16 16 16 16 17 17 17 18
12 13 13 13 13 13 13 12 11 11 11 10 10 9 10 10 10 10 10 8 7 7 6 6 7 7 7 8 9 10 11 10 9 7 6 6 6 6 7 7 8 9 9 10 10 10 11 12 12 13 14 14 15 17 17 17 18 18 17 16 15 15 15 15 14 14 14 14 13 13 12 11 11 11 11 12 13 15 16 17 17 17 18 18 18 18
15 15 15 15 15 14 14 13 12 11 11 11 11 11 11 11 11 10 9 8 7 7 7 7 7 8 8 9 10 11 11 12 11 9 8 7 6 7 7 7 8 9 9 10 10 10 11 11 12 13 14 15 16 18 18 18 18 18 18 17 17 17 17 16 15 14 14 14 14 13 13 12 12 12 12 12 13 14 15 16 17 18 19 19 19 19
17 16 16 16 16 15 14 13 13 12 12 12 12 12 12 11 10 9 8 7 7 7 7 7 8 8 8 9 10 10 11 11 12 11 10 8 7 7 8 8 8 9 9 10 11 11 11 12 12 13 14 15 17 18 19 18 18 18 18 17 17 17 18 18 17 15 15 14 14 13 13 13 13 13 13 13 14 14 15 15 15 16 18 19 20 20
18 17 17 16 16 15 15 14 14 13 13 13 13 12 11 10 9 8 7 7 7 7 7 8 8 9 9 10 10 10 10 11 11 11 10 9 8 8 8 8 8 9 9 10 11 11 12 13 13 13 13 14 16 18 19 18 17 17 17 17 17 17 17 18 17 16 15 15 14 13 13 13 13 13 13 13 14 15 15 15 15 15 16 17 18 20
19 18 18 17 16 16 15 15 14 14 14 14 13 12 10 9 9 8 8 7 7 8 8 8 9 9 10 11 11 10 10 11 11 11 10 9 8 8 8 8 8 8 9 9 9 10 10 11 11 11 10 10 11 13 14 15 14 14 14 15 15 15 15 16 15 14 14 13 13 12 12 12 12 12 13 14 15 15 16 16 16 16 15 15 16 17
18 18 18 18 17 17 16 16 15 15 14 14 13 12 11 10 10 9 9 9 9 9 9 9 9 10 10 11 11 11 10 10 10 10 9 8 7 8 8 8 8 8 8 7 7 7 6 7 7 8 8 6 6 7 8 10 11 11 12 12 12 12 13 13 13 12 12 11 11 11 11 11 11 12 13 14 14 15 15 16 17 17 15 14 14 15
Wind_Direction
249 257 271 279 283 288 295 299 306 315 320 320 320 320 319 318 316 313 310 307 305 304 303 302 301 301 301 300 297 288 275 267 260 255 251 249 247 247 248 250 253 257 264 272 279 281 280 278 277 278 273 262 254 254 260 266 276 285 289 280 259 109 94 101 104 104 102 104 103 104 109 117 125 130 134 136 138 141 144 147 151 154 158 162 165 168
257 267 274 280 286 294 302 306 312 317 320 320 319 317 317 316 313 310 307 305 303 300 298 294 292 291 290 288 284 276 263 253 247 246 249 249 247 245 245 248 252 259 266 273 276 275 274 275 281 285 282 274 265 262 265 269 271 272 268 252 221 171 138 136 140 140 133 119 114 111 104 107 115 124 132 137 141 145 148 151 154 157 161 167 170 171
264 277 281 286 293 301 308 314 317 319 321 321 319 318 317 316 314 313 312 311 310 308 304 299 293 286 281 278 273 264 253 244 235 232 237 244 247 247 245 247 251 258 264 269 269 267 267 276 280 275 264 254 249 251 257 263 261 255 242 227 206 181 164 166 172 179 186 168 143 142 146 148 150 152 156 159 161 162 163 164 166 170 175 180 179 174
265 281 289 296 301 305 309 316 320 321 321 320 318 317 316 316 316 317 319 322 324 324 321 313 302 290 278 271 264 256 246 240 232 225 225 234 241 244 241 243 249 256 263 267 269 269 275 274 267 253 239 230 228 234 250 260 255 242 225 214 204 195 191 194 196 196 191 178 157 148 157 171 180 184 184 184 185 185 184 184 183 183 184 179 172 164
266 279 287 296 303 307 308 312 316 317 318 317 316 315 315 317 319 321 323 326 330 333 331 326 316 303 287 272 260 250 240 234 229 223 218 223 231 236 235 235 241 251 262 270 275 278 277 271 256 242 230 223 225 243 268 273 260 242 225 213 206 205 206 207 204 197 184 170 159 154 158 168 178 184 186 187 189 190 189 184 179 174 167 159 149 139
269 276 283 291 298 304 307 309 310 312 314 314 314 315 317 320 322 324 326 328 330 329 329 330 328 321 307 289 269 252 239 230 224 220 215 214 220 226 229 229 234 245 258 267 272 273 271 265 252 239 230 230 242 268 286 282 265 246 233 223 215 211 210 207 203 198 191 180 171 167 168 173 180 185 184 182 180 179 176 168 162 159 154 151 146 140
271 274 280 288 294 298 301 304 307 310 313 315 316 318 321 323 325 326 327 327 324 322 323 329 333 332 324 310 287 263 243 230 223 219 216 212 213 218 224 225 230 240 251 259 264 265 263 258 248 238 232 235 252 280 293 285 265 246 236 231 227 221 213 206 202 201 200 194 189 184 180 179 181 183 182 176 171 166 162 157 155 157 160 164 165 165
272 278 283 289 293 295 297 300 304 308 311 314 316 318 320 323 326 328 326 323 320 320 323 331 339 342 338 327 309 281 253 235 227 223 222 217 213 213 218 221 227 235 244 251 255 257 256 250 242 234 231 235 254 285 300 289 265 244 236 233 232 229 225 217 209 203 200 199 199 196 190 185 183 183 184 181 177 170 165 160 158 161 169 183 192 197
273 285 290 289 291 296 299 300 301 304 307 309 312 314 317 321 326 329 329 326 323 325 331 339 346 350 349 341 327 305 269 243 232 230 229 225 218 212 213 217 222 229 236 242 247 249 248 242 235 229 228 235 261 296 307 293 261 237 230 230 230 230 230 226 219 210 204 204 205 205 202 198 196 195 194 194 194 191 187 182 179 181 189 199 207 215
273 287 296 293 291 293 297 294 294 297 302 305 308 311 316 321 325 329 331 328 327 329 337 342 345 347 351 347 337 322 293 249 234 231 230 229 222 216 214 215 219 224 229 234 238 240 237 232 227 224 226 239 278 314 316 290 248 225 221 222 222 222 222 222 220 218 216 215 216 215 213 211 208 205 204 205 209 213 213 214 216 218 219 217 214 218
286 292 297 295 293 291 290 288 289 294 300 304 309 315 321 324 327 328 327 323 321 323 329 336 339 339 342 346 344 336 331 253 220 213 211 211 210 210 211 214 217 220 223 227 229 230 227 224 221 219 222 242 316 339 318 270 235 221 218 218 216 213 212 212 214 218 223 226 226 225 223 221 219 216 216 218 224 230 233 237 237 234 230 224 220 221
285 287 286 285 284 283 282 283 288 292 298 304 309 313 319 324 326 323 318 311 308 310 315 323 329 331 333 337 338 334 325 246 220 204 197 194 194 196 200 205 209 213 216 219 221 221 219 217 215 213 211 208 33 14 303 247 230 223 220 220 219 216 213 211 212 217 222 225 226 228 231 235 237 239 240 241 245 247 248 246 240 234 230 228 228 231
267 271 273 275 276 277 277 279 284 290 296 300 299 298 303 310 314 313 309 304 302 303 308 314 318 322 323 324 321 306 246 224 216 208 201 196 193 192 193 195 198 203 208 211 212 213 213 212 210 206 193 140 75 48 267 241 232 228 226 225 225 223 221 218 216 217 218 219 221 226 234 242 247 250 251 251 253 255 254 249 243 237 236 239 245 252
263 267 270 272 273 274 275 277 279 284 290 295 295 292 293 298 302 304 303 301 300 302 305 309 313 315 315 314 304 269 222 213 209 204 202 200 199 198 195 194 196 202 206 206 206 208 211 209 204 195 177 137 104 94 238 239 236 233 231 229 229 227 223 220 218 216 214 214 217 223 231 239 243 245 246 247 250 253 254 254 253 253 255 260 266 271
260 262 264 265 266 269 273 278 283 288 292 295 295 293 294 297 300 302 303 303 302 303 306 310 313 313 311 310 295 250 216 214 205 196 192 196 201 203 201 198 200 205 208 206 206 209 213 209 201 191 178 148 127 127 215 236 237 236 233 232 231 230 227 224 222 220 220 221 224 229 235 241 244 246 247 250 253 256 258 259 261 263 266 270 274 277
254 254 253 258 263 268 274 280 285 287 288 289 289 291 294 298 301 303 305 304 303 304 307 314 317 316 310 312 301 250 222 220 211 198 189 190 196 201 202 199 200 204 209 209 210 212 215 212 207 200 192 178 165 167 222 239 242 241 240 239 238 237 237 236 235 236 238 242 246 250 254 257 259 260 262 263 264 265 266 266 267 268 270 272 274 275
246 247 249 255 262 268 273 276 275 275 277 281 284 288 293 298 301 303 304 303 301 300 300 307 312 309 303 313 320 295 237 230 222 212 201 193 193 196 199 197 197 201 208 211 213 215 217 214 213 212 213 214 221 235 243 247 249 250 250 249 248 247 247 247 247 249 252 257 261 264 268 270 272 274 275 276 276 276 275 274 274 273 273 273 273 273
239 241 246 253 259 263 266 267 268 270 274 277 283 287 292 296 300 302 300 296 291 287 285 286 281 277 286 290 307 319 294 250 236 228 219 210 201 198 198 198 200 204 209 212 215 218 219 218 219 222 227 237 246 251 251 250 251 254 256 257 256 254 252 252 253 254 257 261 265 269 272 276 280 283 285 286 287 287 286 284 282 280 278 276 274 272
236 239 240 245 250 254 258 260 265 268 274 279 286 292 298 301 303 303 297 287 278 274 273 269 264 263 271 280 294 308 318 292 255 240 234 227 218 209 203 201 204 208 214 218 220 221 221 222 224 227 233 242 252 258 258 254 252 253 256 257 256 254 253 253 253 254 256 260 264 269 274 279 283 287 291 293 294 295 294 293 291 289 285 282 278 275
238 240 239 239 241 245 250 254 260 267 274 282 289 293 297 301 304 305 300 286 271 262 260 262 261 261 269 277 285 291 297 297 272 248 239 234 229 222 216 211 210 213 218 223 226 227 225 225 228 231 234 238 244 248 250 251 252 253 253 252 251 249 250 250 251 252 254 257 261 266 272 277 283 287 291 292 293 293 294 293 293 292 290 288 285 280
240 240 244 245 244 245 249 257 265 273 279 286 289 291 293 297 301 303 304 294 275 259 254 258 257 258 264 269 276 280 279 285 279 256 242 238 233 228 224 221 220 220 221 226 230 231 230 230 232 234 237 240 242 242 239 241 246 250 251 247 246 246 247 247 248 249 251 253 257 262 268 274 279 283 286 287 287 286 285 285 285 287 288 288 288 285
241 242 246 249 250 252 257 265 272 279 284 287 287 286 287 290 293 295 298 297 287 274 263 258 256 256 258 262 266 270 272 280 276 256 242 241 238 233 229 227 227 227 227 228 231 234 234 234 235 237 239 242 245 246 245 242 244 248 250 246 244 244 245 245 245 246 247 250 254 258 263 269 274 278 280 282 281 280 278 276 276 278 281 284 286 286
246 247 250 254 256 260 265 270 276 280 284 284 283 281 280 281 282 284 286 290 292 288 278 268 263 261 261 263 265 268 272 275 272 259 242 245 244 239 235 233 233 234 234 235 236 237 239 239 240 240 242 243 246 248 249 248 248 249 250 247 245 245 245 244 244 243 245 247 251 256 260 264 268 271 274 275 277 277 275 273 270 271 273 277 281 283
256 256 257 259 262 266 270 274 277 279 279 277 275 273 272 271 271 272 275 277 279 280 279 274 273 273 274 274 274 274 273 270 263 252 239 242 248 247 243 239 238 239 241 242 242 243 244 245 246 246 246 247 247 249 251 251 252 252 251 248 246 245 245 243 242 242 244 246 250 254 258 261 264 267 269 271 272 274 274 273 269 267 267 271 276 279
259 261 262 264 266 269 271 273 274 273 271 269 268 267 264 261 258 257 258 262 266 269 273 276 279 280 281 281 280 278 274 267 259 245 233 239 249 251 249 246 244 244 245 246 247 248 249 250 250 251 251 251 251 252 252 253 254 254 253 250 247 245 244 243 242 242 243 247 250 253 256 259 261 264 266 267 269 271 272 272 269 265 263 266 271 275
256 261 265 268 271 272 272 273 272 271 269 268 266 264 262 258 254 254 254 256 259 264 269 271 272 273 275 277 278 278 277 268 259 246 234 237 250 255 253 251 248 248 249 251 251 252 252 253 253 253 253 254 255 255 255 255 256 255 254 251 248 245 243 242 242 243 245 247 250 253 255 257 259 261 263 264 266 268 270 270 267 263 260 261 265 269
257 264 268 271 274 275 275 274 274 275 275 272 267 264 262 261 259 257 255 255 257 259 262 261 261 266 269 267 266 272 278 274 265 251 242 241 248 256 255 252 250 251 253 255 256 256 256 257 257 256 256 256 256 256 256 256 255 254 252 250 247 245 243 241 242 243 246 248 251 252 253 255 256 258 260 261 263 265 267 268 265 260 257 257 260 263
260 266 272 277 282 285 283 280 281 282 283 280 274 269 267 268 261 247 240 249 252 250 250 249 249 252 259 257 258 267 278 280 274 258 247 238 241 252 251 251 252 253 257 261 264 265 264 263 263 262 260 258 256 254 253 253 251 250 249 247 245 243 242 241 242 243 246 248 250 251 251 253 254 255 257 258 260 262 264 264 262 258 253 252 254 259
266 273 281 292 302 309 310 305 303 301 300 299 296 291 283 277 262 248 247 259 256 244 237 239 244 247 252 263 269 271 274 276 270 259 250 235 239 251 253 254 255 258 262 270 275 273 269 267 266 264 261 258 254 251 249 248 247 247 246 244 242 239 238 239 240 242 245 247 248 249 250 251 253 254 255 255 257 258 260 261 259 255 250 249 250 255
284 286 292 307 319 324 323 321 322 321 321 323 322 318 305 289 270 268 281 279 263 244 229 229 235 242 251 268 278 278 274 272 263 256 253 243 241 250 257 259 260 260 263 273 284 281 269 266 264 262 258 255 251 248 245 244 244 245 244 243 241 238 236 236 237 239 242 244 245 247 249 251 252 253 253 253 254 255 256 257 256 253 249 248 249 252
302 300 303 309 313 315 315 315 318 323 324 326 324 322 319 310 281 270 276 275 263 248 232 226 228 233 239 249 259 284 288 275 260 260 262 251 246 252 261 260 259 259 257 245 261 290 277 267 262 256 245 246 246 244 242 241 242 242 243 243 242 240 239 238 238 239 241 242 244 246 248 250 252 252 252 252 252 252 253 254 253 250 248 246 247 249
309 304 301 302 302 302 302 305 309 314 316 317 317 319 324 320 295 271 264 262 256 246 235 229 227 229 232 234 232 241 282 277 272 278 281 264 254 256 260 258 256 255 253 234 240 261 262 293 288 264 237 250 263 265 257 252 248 247 246 246 246 245 245 245 245 245 246 246 247 248 249 250 251 251 251 250 249 249 249 249 249 247 246 245 245 247
296 291 288 287 287 284 281 283 289 295 300 301 301 302 302 296 282 271 264 261 255 246 236 230 228 230 235 238 242 248 259 264 270 276 281 274 261 257 259 258 255 253 252 240 239 245 257 278 289 286 277 275 276 277 275 272 268 265 263 261 261 260 259 258 256 256 255 254 253 252 251 250 249 248 248 247 246 246 246 246 245 244 243 245 244 245
271 270 269 269 265 260 255 255 257 264 273 277 281 288 287 284 281 278 275 270 267 262 253 239 234 234 237 240 245 250 256 259 264 268 273 274 265 257 263 261 259 257 255 247 240 242 257 265 274 285 285 278 274 272 271 271 271 270 270 270 270 271 270 268 266 264 262 260 257 255 253 250 247 244 242 242 242 242 243 244 243 241 241 244 244 244
256 255 254 250 244 238 232 229 232 242 252 275 294 308 312 307 303 297 290 282 275 269 264 258 250 246 246 246 249 253 258 259 261 263 266 271 270 267 268 265 263 261 257 252 244 243 257 265 269 274 282 284 281 278 274 272 271 271 272 274 275 275 275 273 270 268 266 263 260 257 254 250 246 242 240 238 238 238 240 242 242 240 239 240 242 244
249 247 244 239 233 230 228 228 230 236 249 307 352 352 346 339 330 321 311 299 287 278 271 266 263 260 258 258 258 258 260 261 262 263 264 268 271 271 269 265 264 262 258 254 250 250 261 271 273 273 276 281 285 283 278 276 276 277 279 281 282 281 279 276 274 272 269 267 264 260 255 251 247 243 241 240 239 239 240 240 241 239 237 237 241 245
245 243 240 234 230 230 234 239 244 247 249 320 5 1 351 345 338 330 322 314 304 294 286 279 275 272 270 269 267 265 262 261 262 264 265 267 269 269 267 266 267 266 262 258 256 257 263 272 278 279 277 274 274 277 281 282 284 287 289 291 290 287 284 282 281 280 278 274 270 265 259 253 248 245 243 242 242 241 240 240 238 237 235 234 238 243
242 239 236 232 230 231 237 244 248 250 246 241 336 336 336 333 331 327 321 316 309 302 297 292 287 285 282 280 277 274 269 265 264 264 265 266 267 267 267 267 267 267 266 264 263 263 265 270 276 280 278 274 273 276 281 285 290 293 295 293 290 287 287 288 291 291 288 283 277 270 263 256 251 247 245 243 242 241 239 236 234 232 231 232 234 239
237 236 232 229 228 231 237 243 248 249 245 242 264 294 311 318 320 321 317 313 308 303 299 295 293 291 290 288 285 282 278 274 271 268 267 266 266 267 268 268 268 267 266 264 263 264 265 266 268 273 278 280 281 282 284 287 293 297 299 297 294 291 291 295 298 298 294 289 281 273 264 258 253 248 246 243 241 239 236 232 228 226 225 226 229 233
236 234 231 228 229 233 238 243 248 250 247 246 256 275 291 303 310 313 314 311 307 303 299 296 293 292 290 288 287 286 284 283 280 276 274 271 269 268 268 268 268 268 266 263 262 262 264 265 265 267 270 275 280 282 283 285 287 291 296 301 301 298 299 300 300 298 295 289 281 272 263 257 252 249 246 244 242 239 235 231 227 224 222 223 225 228
234 232 229 227 228 231 236 241 244 246 245 247 254 264 279 292 302 306 307 306 304 302 298 295 292 289 286 284 285 286 288 289 286 283 280 276 272 270 269 269 269 268 266 264 263 262 263 265 267 268 270 273 276 278 278 280 281 284 287 290 291 292 294 295 294 294 292 288 282 273 265 256 251 247 246 245 243 242 239 235 231 228 225 224 224 226
234 231 229 229 230 231 232 235 237 240 243 247 252 260 273 286 293 297 298 298 297 297 295 294 292 289 285 281 280 284 289 293 293 291 287 282 277 274 272 272 271 269 268 267 266 265 265 267 269 271 273 275 278 279 280 281 281 281 281 281 284 287 290 289 289 293 299 302 298 287 274 262 253 247 245 244 243 243 243 240 237 234 231 229 227 227
234 231 229 230 231 232 233 234 235 237 241 245 251 259 270 279 286 290 292 292 293 294 294 294 294 294 292 290 288 290 295 299 302 302 298 293 286 282 280 278 276 275 274 271 270 271 273 273 273 275 277 279 280 280 281 284 285 285 282 281 281 284 288 288 289 293 301 307 310 305 295 280 265 255 248 244 242 241 241 241 240 239 238 236 235 233
234 230 227 227 228 230 233 233 234 237 241 244 249 257 267 274 281 286 289 291 293 295 297 297 297 297 295 296 299 303 305 309 312 312 310 303 297 292 288 286 284 282 280 277 274 276 280 280 281 282 284 283 282 281 282 285 287 288 287 285 281 277 274 275 278 283 287 291 295 300 303 298 285 269 255 247 243 240 239 240 240 240 241 242 242 241
232 227 225 225 227 229 230 231 233 236 240 244 250 257 266 274 280 285 288 290 293 296 298 297 296 294 290 291 297 303 306 309 313 316 315 310 303 298 295 292 289 286 284 282 282 281 280 279 282 285 287 285 282 280 280 282 285 287 289 289 286 281 276 273 272 274 277 279 282 287 293 297 294 282 267 254 247 242 240 239 239 240 242 243 245 246
227 225 224 225 226 228 229 231 233 235 239 246 253 260 267 274 280 284 287 288 290 293 293 292 288 286 285 290 296 301 305 308 312 316 318 317 312 307 303 299 294 290 286 285 286 287 286 284 284 285 285 284 282 280 279 281 282 284 286 288 288 286 283 279 276 275 275 276 277 280 284 288 288 284 277 267 258 250 244 241 240 241 241 243 246 248
224 223 223 223 225 226 228 230 232 237 243 250 257 262 268 273 279 284 286 287 286 286 286 284 282 280 283 290 296 301 306 310 314 316 319 322 321 318 315 308 300 295 292 289 288 288 289 291 290 288 283 280 279 280 283 284 283 282 283 286 287 286 285 284 283 281 279 278 278 278 279 280 281 282 282 279 273 264 255 249 245 243 242 243 245 248
222 222 222 222 223 224 225 228 233 239 246 251 256 260 266 272 278 283 282 283 282 280 278 276 277 279 283 288 294 301 306 310 313 315 317 319 320 319 317 313 307 301 296 294 293 292 293 294 293 291 286 279 276 277 283 286 286 285 285 285 285 284 283 284 286 286 284 282 280 279 277 277 278 280 282 281 278 273 269 263 256 251 247 246 246 247
224 224 224 225 224 225 227 231 236 241 246 250 252 255 261 270 276 277 275 275 275 273 272 272 275 279 283 288 294 302 307 308 309 310 311 311 312 312 313 312 309 305 301 298 297 298 299 299 297 295 291 285 278 276 282 287 290 290 289 287 286 285 284 286 288 289 288 286 284 281 278 276 275 277 279 276 273 273 275 274 271 265 258 254 251 250
226 226 228 229 230 231 234 237 240 243 246 248 249 250 256 264 269 270 270 269 269 268 268 271 275 278 282 288 294 301 306 307 308 309 310 311 309 308 310 312 312 311 308 305 304 305 307 306 304 303 301 297 290 284 284 289 294 296 294 293 293 292 292 293 296 297 296 293 290 286 281 276 274 273 273 269 268 269 273 275 275 274 270 264 260 257
230 230 231 233 235 238 240 242 243 245 246 247 248 250 255 260 264 266 266 265 264 264 267 272 276 278 281 287 293 299 304 308 311 315 320 321 318 314 314 316 317 316 313 311 312 315 318 320 318 316 316 319 319 312 300 296 298 299 297 301 305 307 305 306 309 312 310 306 300 293 284 277 273 270 268 265 263 264 268 270 273 276 277 275 271 267